Weather in Kremyonky

Russia / Kaluga Oblast     54°53′13″N   37°06′58″E
temp.,
°C
wind,
m/s
gust,
m/s
humid.,
%
clouds,
%
prec.,
mm/h
press.,
hPa
HPBL,
m
16 april, fri
fri1600:00+12ene51280100 0.6 1015648
03:00+10ene41088100 0.7 1016502
06:00+9ene41092100 0.0 1017470
09:00+12e5881100 0.1 1018666
12:00+13e5775100 0.2 1019975
15:00+12e5979100 0.8 1019995
18:00+12e41079100 1.1 1019843
21:00+11e41186100 3.6 1019882
17 april, sat
sat1700:00+10ene41092100 3.1 1020519
03:00+9ene41094100 3.1 1021496
06:00+8ene41094100 0.0 1021506
09:00+9ene5118697 0.1 1022646
12:00+13ene6106887 0.1 10211028
15:00+15ene61159100 0.2 10201339
18:00+14ene61256100 0.0 10201311
21:00+10ene6136259 0.0 1021783
18 april, sun
sun1800:00+8ne51360100 0.0 1021632
03:00+6ne51464100 0.0 1020625
06:00+5ne5137097 0.0 1020657
09:00+6ene61271100 0.1 1020773
12:00+8e51072100 0.0 10221029
15:00+9ene5773100 0.1 1023954
18:00+7ene31177100 0.1 1023801
21:00+6ene41179100 0.1 1023857
19 april, mon
mon1900:00+5ne3108466 0.0 1023424
03:00+6ne4127538 0.0 1023761
06:00+5ene41084100 0.0 1024919
09:00+5ene4989100 0.1 1025860
12:00+8ene5975100 0.0 10251058
15:00+8ene597299 0.1 10251133
18:00+7e5974100 0.0 1025939
21:00+6ene41175100 0.1 10251041
20 april, tue
tue2000:00+5ene5126799 0.0 1024694
03:00+3e4116899 0.0 1024631
06:00+2ene5128058 0.1 1022675
09:00+5e6116963 0.1 1021807
12:00+6ene71269100 0.0 10181081
15:00+2ene71796100 1.8 1015903
18:00+2ene82096100 8.1 10111144
21:00+4e81996100 13.7 10091320